Dewpoint
75 75 74 73 72 71 71 70 70 70 71 70 69 69 69 69 70 71 71 71 71 70 70 70 70 70 69 69 69 68 68 67 66 66 66 66 65 65 64 64 65 64
75 75 74 73 72 71 71 70 70 70 70 70 70 70 70 70 70 70 71 71 71 70 70 69 70 70 69 68 69 68 68 68 67 67 67 67 66 65 64 64 64 65
75 74 73 72 71 70 69 69 70 70 69 69 70 70 69 69 69 70 71 70 70 69 70 69 70 70 69 69 69 68 67 68 67 66 67 67 65 65 65 62 64 64
74 74 72 71 71 70 69 69 69 69 69 69 68 68 68 68 69 69 70 70 69 69 69 69 68 68 69 69 69 68 68 67 67 67 67 67 67 66 65 65 65 65
74 73 72 71 70 70 70 68 67 68 67 68 68 69 69 69 69 68 69 69 69 68 69 69 69 68 69 69 69 68 68 67 67 68 67 67 67 68 66 66 66 65
74 73 72 71 70 70 69 68 68 67 67 67 68 68 68 69 69 68 68 67 67 66 66 67 68 68 68 68 69 68 67 65 65 68 67 67 65 65 66 67 67 66
73 72 71 70 69 69 69 69 68 68 67 67 69 68 68 68 69 69 68 68 67 67 66 67 68 67 68 68 68 68 68 67 66 68 67 66 67 66 67 67 67 66
72 71 70 69 69 69 68 68 68 68 68 69 67 68 68 67 68 68 68 68 67 68 68 68 68 68 67 67 67 67 67 67 66 67 67 66 67 67 67 67 67 67
72 70 70 68 68 68 66 66 66 68 68 67 66 66 68 68 67 67 68 68 68 68 68 68 68 68 68 67 67 67 67 66 66 66 66 66 66 66 66 66 66 67
71 70 69 67 67 67 66 65 64 66 67 67 67 67 66 67 67 67 67 67 67 67 67 67 68 68 68 67 67 67 67 66 67 67 66 66 65 65 65 66 66 66
71 69 68 68 67 66 65 64 63 63 65 66 66 67 66 66 66 66 66 66 66 66 67 67 67 67 67 66 66 67 67 66 66 67 66 66 66 66 66 66 66 65
71 69 68 67 66 65 64 63 64 66 66 66 65 65 65 65 66 65 66 66 65 66 66 66 67 67 67 67 66 66 67 66 66 66 66 67 67 66 66 67 66 65
71 69 68 67 67 67 66 65 64 65 65 65 65 64 63 64 64 65 66 65 66 65 65 66 66 66 67 67 67 67 67 66 66 67 67 67 67 65 64 65 65 65
71 70 69 68 68 68 67 66 66 68 68 68 67 64 64 64 64 65 65 65 65 65 66 66 66 66 67 67 67 67 66 66 67 67 67 67 67 66 65 64 65 65
71 71 69 68 68 68 68 68 68 68 68 68 67 65 65 65 65 65 64 64 65 65 65 65 65 65 66 67 66 66 66 66 67 67 66 66 65 65 65 66 66 65
71 70 69 68 68 68 66 66 67 67 67 67 65 65 65 66 65 65 64 64 65 65 65 65 65 66 65 62 63 66 67 67 67 67 66 65 65 65 64 65 65 64
70 70 69 67 68 68 68 68 66 65 65 65 65 65 66 66 66 65 63 63 63 63 64 65 65 65 62 61 61 63 65 66 66 66 66 66 65 65 65 64 64 66
70 70 69 68 68 67 67 67 67 67 66 65 65 65 66 65 65 65 65 64 64 63 63 64 64 63 60 60 61 61 63 65 65 65 65 65 65 65 65 65 64 64
70 69 69 68 68 67 67 66 66 66 65 63 62 63 65 65 64 64 64 64 64 64 63 63 62 62 59 59 60 60 60 63 65 66 66 65 66 66 66 66 66 65
70 69 68 68 68 67 67 66 66 64 64 64 63 64 63 64 64 64 64 64 64 64 63 63 63 61 58 58 58 58 59 61 65 66 66 65 65 66 66 65 65 65
70 69 68 67 67 66 65 65 65 64 64 64 63 63 64 65 64 65 64 64 64 63 63 63 62 60 58 57 57 57 58 61 65 66 66 66 66 65 66 65 66 66
69 68 67 67 66 66 65 65 64 63 62 63 61 61 63 64 65 64 64 64 64 64 62 62 61 58 57 57 56 56 58 64 65 66 66 65 65 65 65 66 65 64
68 67 67 67 65 64 63 63 63 62 62 61 61 61 61 63 63 63 64 64 63 64 64 64 64 61 56 56 56 56 58 65 66 65 65 65 64 65 64 63 63 63
68 67 67 66 65 64 63 63 63 63 63 63 61 61 61 61 63 64 64 65 64 64 62 64 63 61 55 54 55 55 60 65 66 65 64 64 63 64 63 63 63 62
67 67 66 65 65 64 63 61 61 62 63 64 63 63 62 64 64 64 64 65 63 62 64 62 63 60 54 54 54 54 60 64 65 62 62 62 62 63 63 63 64 62
67 66 66 65 65 64 65 63 63 62 62 63 63 63 63 63 64 64 64 64 63 63 63 63 64 66 64 53 52 52 55 64 63 62 61 61 62 61 62 63 63 62